Torna al catalogo

STARLINK-3517

AttivoComunicazioniVLEO
NORAD 51735·PAYLOAD·🇺🇸 United States

Lanciato Feb 21, 2022 da Cape Canaveral Space Force Station

Loading…

Prossimi Passaggi (prossime 24 ore)

TLE

AggiornatoSource: CelesTrak SupGP

Epoca: Sep 14, 2026, 21:31 UTC

1 51735C 22016X   26257.89701389 -.00047922  00000+0 -14156-2 0  2570
2 51735  53.1584 175.7165 0001370  84.7906 251.4489 15.34419979    12

Traccia STARLINK-3517 in tempo reale con AllMySat

Download on the App Store